Location: Krakow
(50.0830°N, 19.9170°E)
Time: 13:20:55
(UTC+01:00)

Vanguard 2 - Pass Details

Date: 14 December 2023
Orbit: 553 x 2919 km, 32.9° (Epoch: 24 February)

Event Time Altitude Azimuth Distance (km) Brightness Sun altitude
Rises 20:50:10 0° 257° (WSW) 6,558 12.8 -48.3°
Reaches altitude 10° 20:54:45 10° 251° (WSW) 5,673 12.2 -48.9°
Enters shadow 21:07:09 38° 211° (SSW) 3,851 10.8 -50.7°
